Погода в Воротынске

Россия / Калужская область     54°28′15″N   36°02′59″E
темп.,
°C
ветер,
м/с
пор.,
м/с
влажн.,
%
обл.,
%
осадки,
мм/ч
давл.,
гПа
погр.,
м
20 мая, пт
пт2000:00+7с3594100 0.0 1016104
03:00+6ссз379618 0.9 1016197
06:00+5с26940 0.0 1018181
09:00+9св33735 0.0 1018726
12:00+12с3353100 0.1 10181695
15:00+13ссв2348100 0.1 10171708
18:00+13юв1154100 0.0 1016984
21:00+9в2363100 0.0 101642
21 мая, сб
сб2100:00+7вюв4968100 0.0 1015240
03:00+6юв4967100 0.0 1014247
06:00+6вюв497394 0.0 1013266
09:00+10юв4659100 0.0 1012756
12:00+13вюв445026 0.0 10101833
15:00+14вюв444798 0.0 10091987
18:00+13юв4558100 0.0 10071093
21:00+9вюв3668100 0.0 1006133
22 мая, вс
вс2200:00+8вюв3775100 0.0 1004172
03:00+7вюв3978100 0.1 1002374
06:00+6в51187100 0.7 1001613
09:00+7всв61079100 1.4 1002929
12:00+11всв796192 0.2 10021730
15:00+13св584569 0.3 10032239
18:00+12ссв5752100 0.0 10041981
21:00+6с41069100 0.0 1006199
23 мая, пн
пн2300:00+3с35670 0.0 100784
03:00+2ссз34702 0.0 100859
06:00+3сз26735 0.0 1009161
09:00+9сз45545 0.0 1008848
12:00+12сз67425 0.0 10072100
15:00+13сз67405 0.0 10072130
18:00+12сз585170 0.0 1007994
21:00+6сз34615 0.0 100951
24 мая, вт
вт2400:00+4сз3370100 0.0 101038
03:00+4сз3868100 0.0 1011151
06:00+4сз396684 0.0 1012206
09:00+10сз61054100 0.0 1012927
12:00+14ссз6104588 0.0 10111672
15:00+16ссз61049100 0.0 10112364
18:00+14ссз4864100 0.1 1012283
21:00+12ссз227033 0.1 101412